Location: Boca do Mato
(22.9085°S, 43.2930°W)
Time: 22:30:31
(UTC+00:00)

Cosmos 2195 Rocket - Pass Details

Date: 14 July 2020
Orbit: 949 x 993 km, 82.9° (Epoch: 10 August)

Event Time Altitude Azimuth Distance (km) Brightness Sun altitude
Rises 07:55:30 0° 350° (N) 3,666 7.6 -22.2°
Reaches altitude 10° 07:58:00 10° 347° (NNW) 2,730 6.9 -21.7°
Maximum altitude 08:04:14 67° 265° (W) 1,071 4.4 -20.3°
Drops below altitude 10° 08:10:34 10° 182° (S) 2,774 6.7 -18.9°
Sets 08:13:09 0° 179° (S) 3,730 7.4 -18.3°
